Terug naar catalogus

STARLINK-32758

ActiefCommunicatieVLEO
NORAD 62744·PAYLOAD·🇺🇸 United States

Gelanceerd Jan 21, 2025 vanaf Cape Canaveral Space Force Station

Loading…

Volgende Passages (komende 24 uur)

TLE

VersSource: CelesTrak SupGP

Epoch: Sep 15, 2026, 03:04 UTC

1 62744C 25014K   26258.12826389  .00008047  00000+0  29154-3 0  2587
2 62744  43.0023 167.9461 0001484 276.2905 322.5363 15.27565083    16

Volg STARLINK-32758 in realtime met AllMySat

Download on the App Store